TimeAKDT,TemperatureF,Dew PointF,Humidity,Sea Level PressureIn,VisibilityMPH,Wind Direction,Wind SpeedMPH,Gust SpeedMPH,PrecipitationIn,Events,Conditions,WindDirDegrees,DateUTC
12:53 AM,33.1,25.0,72,30.29,10.0,East,6.9,-,N/A,,Clear,90,2013-04-20 08:53:00
1:53 AM,32.0,24.1,73,30.30,10.0,East,3.5,-,N/A,,Clear,80,2013-04-20 09:53:00
2:53 AM,33.1,23.0,66,30.31,10.0,Calm,Calm,-,N/A,,Clear,0,2013-04-20 10:53:00
3:53 AM,32.0,23.0,69,30.32,10.0,Calm,Calm,-,N/A,,Clear,0,2013-04-20 11:53:00
4:53 AM,32.0,21.0,64,30.33,10.0,ENE,4.6,-,N/A,,Clear,70,2013-04-20 12:53:00
5:53 AM,30.9,21.9,69,30.33,9.0,NNE,3.5,-,N/A,,Clear,20,2013-04-20 13:53:00
6:53 AM,34.0,23.0,64,30.34,10.0,Calm,Calm,-,N/A,,Clear,0,2013-04-20 14:53:00
7:53 AM,37.9,23.0,55,30.35,10.0,Calm,Calm,-,N/A,,Clear,0,2013-04-20 15:53:00
8:53 AM,39.9,19.0,43,30.36,10.0,Calm,Calm,-,N/A,,Clear,0,2013-04-20 16:53:00
9:53 AM,42.1,17.1,37,30.37,10.0,ESE,10.4,-,N/A,,Clear,120,2013-04-20 17:53:00
10:53 AM,44.1,17.1,34,30.38,10.0,East,8.1,-,N/A,,Clear,90,2013-04-20 18:53:00
11:53 AM,45.0,18.0,34,30.39,10.0,ESE,6.9,-,N/A,,Clear,120,2013-04-20 19:53:00
12:53 PM,44.1,21.0,40,30.39,10.0,WNW,8.1,-,N/A,,Clear,300,2013-04-20 20:53:00
1:53 PM,46.0,23.0,40,30.39,10.0,WNW,9.2,-,N/A,,Clear,290,2013-04-20 21:53:00
2:53 PM,46.0,24.1,42,30.40,10.0,West,6.9,-,N/A,,Clear,260,2013-04-20 22:53:00
3:53 PM,45.0,27.0,49,30.40,10.0,WSW,8.1,-,N/A,,Clear,240,2013-04-20 23:53:00
4:53 PM,46.9,30.0,52,30.39,10.0,SW,9.2,-,N/A,,Clear,220,2013-04-21 00:53:00
5:53 PM,46.0,26.1,46,30.39,10.0,WSW,5.8,-,N/A,,Clear,250,2013-04-21 01:53:00
6:53 PM,46.0,24.1,42,30.39,10.0,Calm,Calm,-,N/A,,Clear,0,2013-04-21 02:53:00
7:53 PM,45.0,27.0,49,30.40,10.0,WNW,8.1,-,N/A,,Clear,300,2013-04-21 03:53:00
8:53 PM,41.0,27.0,57,30.41,10.0,East,3.5,-,N/A,,Clear,100,2013-04-21 04:53:00
9:53 PM,37.9,27.0,65,30.43,10.0,East,5.8,-,N/A,,Clear,90,2013-04-21 05:53:00
10:53 PM,37.0,27.0,67,30.43,10.0,East,6.9,-,N/A,,Clear,100,2013-04-21 06:53:00
11:53 PM,36.0,25.0,64,30.44,10.0,East,3.5,-,N/A,,Clear,100,2013-04-21 07:53:00